Total_Precipitation_Accumulation
0.00 0.01 0.04 0.05 0.04 0.05 0.06 0.06 0.07 0.07 0.06 0.04 0.03 0.03 0.04 0.04 0.09 0.15 0.15 0.09 0.06 0.06 0.07 0.15 0.19 0.14 0.15 0.20 0.23 0.27 0.34 0.36 0.28 0.22 0.23 0.23 0.17 0.17 0.22 0.22 0.26 0.34 0.14
0.00 0.01 0.05 0.08 0.07 0.08 0.07 0.06 0.08 0.08 0.04 0.03 0.04 0.04 0.04 0.06 0.12 0.12 0.08 0.04 0.03 0.04 0.06 0.14 0.20 0.15 0.17 0.22 0.31 0.38 0.44 0.39 0.30 0.21 0.25 0.27 0.23 0.22 0.24 0.23 0.34 0.35 0.16
0.00 0.01 0.03 0.08 0.09 0.08 0.07 0.06 0.13 0.14 0.07 0.06 0.08 0.07 0.04 0.04 0.06 0.06 0.05 0.03 0.02 0.02 0.04 0.12 0.18 0.17 0.18 0.25 0.34 0.38 0.42 0.40 0.31 0.23 0.34 0.72 0.59 0.32 0.27 0.32 0.32 0.21 0.18
0.00 0.00 0.03 0.06 0.12 0.11 0.08 0.11 0.24 0.23 0.14 0.10 0.09 0.07 0.04 0.03 0.08 0.15 0.14 0.04 0.02 0.02 0.03 0.09 0.16 0.14 0.16 0.25 0.30 0.30 0.30 0.27 0.30 0.37 0.61 0.91 0.85 0.50 0.46 0.43 0.35 0.23 0.20
0.00 0.02 0.11 0.14 0.12 0.10 0.13 0.22 0.36 0.32 0.26 0.17 0.08 0.05 0.04 0.04 0.07 0.14 0.10 0.05 0.02 0.02 0.03 0.08 0.13 0.12 0.13 0.16 0.19 0.19 0.22 0.33 0.44 0.53 0.71 0.74 0.73 0.58 0.54 0.48 0.41 0.27 0.23
0.00 0.02 0.09 0.14 0.12 0.13 0.21 0.32 0.35 0.38 0.41 0.26 0.11 0.05 0.08 0.08 0.09 0.12 0.11 0.05 0.02 0.02 0.02 0.04 0.07 0.11 0.12 0.13 0.14 0.17 0.25 0.38 0.50 0.57 0.67 0.62 0.58 0.48 0.43 0.41 0.40 0.34 0.26
0.00 0.02 0.04 0.14 0.14 0.16 0.25 0.33 0.32 0.37 0.42 0.29 0.11 0.10 0.12 0.07 0.07 0.10 0.13 0.05 0.02 0.01 0.01 0.02 0.05 0.08 0.10 0.13 0.13 0.16 0.19 0.20 0.32 0.47 0.67 0.65 0.47 0.32 0.33 0.36 0.38 0.36 0.31
0.00 0.01 0.03 0.09 0.11 0.15 0.25 0.35 0.29 0.30 0.33 0.23 0.13 0.13 0.10 0.08 0.08 0.11 0.09 0.04 0.01 0.00 0.00 0.01 0.05 0.06 0.08 0.10 0.13 0.17 0.16 0.12 0.18 0.20 0.29 0.47 0.46 0.34 0.25 0.32 0.35 0.29 0.27
0.02 0.01 0.02 0.02 0.03 0.07 0.17 0.29 0.32 0.32 0.29 0.16 0.13 0.10 0.10 0.09 0.07 0.06 0.04 0.02 0.00 0.00 0.00 0.01 0.03 0.03 0.03 0.05 0.07 0.10 0.10 0.07 0.10 0.09 0.11 0.28 0.29 0.23 0.20 0.24 0.30 0.35 0.35
0.03 0.01 0.01 0.01 0.02 0.05 0.07 0.16 0.30 0.35 0.30 0.19 0.14 0.12 0.10 0.07 0.04 0.03 0.01 0.00 0.00 0.00 0.00 0.00 0.01 0.01 0.01 0.02 0.03 0.05 0.05 0.04 0.05 0.06 0.08 0.16 0.19 0.17 0.19 0.17 0.16 0.17 0.20
0.04 0.01 0.01 0.01 0.01 0.07 0.14 0.13 0.26 0.35 0.31 0.18 0.13 0.11 0.10 0.09 0.09 0.08 0.01 0.00 0.00 0.00 0.00 0.01 0.01 0.01 0.00 0.00 0.03 0.06 0.03 0.04 0.05 0.05 0.04 0.06 0.08 0.10 0.13 0.11 0.08 0.07 0.08
0.04 0.05 0.03 0.01 0.01 0.04 0.14 0.36 0.48 0.37 0.26 0.17 0.15 0.08 0.17 0.20 0.17 0.10 0.01 0.00 0.01 0.00 0.00 0.01 0.01 0.00 0.00 0.00 0.02 0.03 0.02 0.03 0.04 0.04 0.03 0.04 0.04 0.04 0.04 0.03 0.03 0.03 0.02
0.01 0.03 0.05 0.02 0.01 0.02 0.14 0.36 0.52 0.57 0.48 0.43 0.25 0.11 0.16 0.11 0.04 0.03 0.01 0.02 0.03 0.00 0.00 0.00 0.00 0.00 0.00 0.00 0.00 0.01 0.02 0.03 0.04 0.06 0.03 0.02 0.03 0.05 0.05 0.03 0.02 0.01 0.01
0.00 0.00 0.03 0.03 0.01 0.01 0.03 0.09 0.19 0.24 0.25 0.27 0.16 0.05 0.04 0.04 0.02 0.01 0.00 0.01 0.01 0.00 0.00 0.00 0.00 0.00 0.00 0.00 0.00 0.01 0.02 0.03 0.13 0.15 0.10 0.07 0.08 0.11 0.11 0.07 0.03 0.02 0.03
0.00 0.01 0.01 0.02 0.02 0.01 0.03 0.04 0.04 0.09 0.11 0.09 0.10 0.08 0.03 0.02 0.01 0.01 0.00 0.00 0.00 0.00 0.00 0.00 0.00 0.00 0.00 0.00 0.00 0.01 0.03 0.06 0.14 0.14 0.17 0.21 0.23 0.27 0.24 0.20 0.13 0.07 0.05
0.03 0.02 0.03 0.02 0.01 0.00 0.01 0.01 0.01 0.05 0.06 0.05 0.03 0.04 0.04 0.02 0.01 0.01 0.00 0.00 0.00 0.00 0.00 0.00 0.00 0.00 0.00 0.00 0.00 0.00 0.00 0.03 0.09 0.11 0.15 0.25 0.35 0.31 0.34 0.36 0.29 0.19 0.14
0.09 0.06 0.04 0.03 0.02 0.01 0.01 0.01 0.01 0.02 0.03 0.03 0.02 0.02 0.03 0.02 0.02 0.01 0.01 0.00 0.00 0.00 0.00 0.00 0.00 0.00 0.00 0.00 0.00 0.00 0.00 0.00 0.01 0.02 0.03 0.08 0.19 0.32 0.40 0.41 0.34 0.29 0.23
0.14 0.12 0.11 0.08 0.06 0.05 0.04 0.03 0.03 0.03 0.05 0.04 0.04 0.02 0.03 0.04 0.04 0.04 0.04 0.03 0.01 0.00 0.00 0.00 0.00 0.00 0.00 0.00 0.00 0.00 0.00 0.00 0.00 0.00 0.01 0.02 0.07 0.15 0.28 0.29 0.27 0.29 0.25
0.20 0.18 0.17 0.17 0.15 0.12 0.10 0.09 0.10 0.13 0.17 0.14 0.12 0.08 0.10 0.12 0.14 0.15 0.16 0.14 0.07 0.03 0.02 0.01 0.01 0.00 0.00 0.01 0.00 0.00 0.00 0.00 0.00 0.00 0.01 0.01 0.02 0.05 0.10 0.09 0.09 0.11 0.15
0.20 0.21 0.22 0.22 0.21 0.20 0.23 0.26 0.35 0.40 0.37 0.39 0.34 0.22 0.25 0.35 0.40 0.44 0.40 0.37 0.27 0.17 0.13 0.09 0.08 0.06 0.04 0.02 0.01 0.01 0.00 0.00 0.00 0.00 0.00 0.01 0.01 0.01 0.02 0.02 0.05 0.04 0.04
0.16 0.18 0.22 0.22 0.25 0.29 0.32 0.39 0.55 0.74 0.68 0.69 0.61 0.43 0.44 0.58 0.75 0.84 0.78 0.70 0.58 0.49 0.40 0.35 0.43 0.41 0.26 0.08 0.06 0.05 0.01 0.00 0.00 0.00 0.00 0.01 0.01 0.02 0.01 0.01 0.02 0.04 0.03
0.13 0.14 0.18 0.25 0.32 0.37 0.43 0.55 0.64 0.72 0.61 0.63 0.65 0.63 0.57 0.56 0.70 0.81 0.93 0.88 0.73 0.69 0.73 0.76 0.90 0.93 0.63 0.29 0.24 0.24 0.14 0.08 0.02 0.01 0.01 0.01 0.01 0.03 0.02 0.01 0.00 0.01 0.02
0.08 0.09 0.12 0.18 0.28 0.39 0.53 0.74 0.91 1.01 1.03 1.04 0.91 0.88 0.80 0.69 0.67 0.69 0.85 0.86 0.75 0.72 0.82 0.92 1.14 1.35 1.10 0.71 0.48 0.49 0.42 0.37 0.18 0.04 0.01 0.02 0.02 0.01 0.02 0.01 0.01 0.01 0.00
0.06 0.06 0.10 0.18 0.32 0.51 0.71 0.95 1.18 1.35 1.34 1.18 1.09 1.00 0.80 0.71 0.67 0.65 0.69 0.75 0.78 0.74 0.86 0.90 0.96 1.29 1.39 1.11 0.85 0.60 0.44 0.38 0.31 0.20 0.06 0.02 0.04 0.02 0.01 0.00 0.01 0.01 0.01
0.10 0.13 0.20 0.38 0.62 0.85 1.06 1.29 1.56 1.56 1.43 1.28 1.17 1.06 0.97 0.87 0.77 0.70 0.73 0.68 0.65 0.67 0.76 0.95 1.08 1.28 1.39 1.26 1.11 0.94 0.78 0.60 0.35 0.32 0.28 0.10 0.03 0.02 0.01 0.00 0.00 0.00 0.01
0.39 0.52 0.72 0.95 1.11 1.18 1.30 1.41 1.54 1.54 1.55 1.46 1.25 1.10 1.02 0.96 0.91 0.87 0.81 0.65 0.55 0.57 0.65 0.80 0.97 1.15 1.34 1.37 1.16 0.96 0.88 0.78 0.67 0.53 0.37 0.26 0.13 0.03 0.01 0.01 0.01 0.00 0.00